Peotone Weather
Station Historical Data
 
Daily Summary for May 25, 2016 Units:  English    Metric   Both
« Previous Day
Next Day »
Daily Weekly Monthly Yearly Custom
  Current: High: Low: Average:
Temperature: 76.7 °F 76.7 °F 62.8 °F 68.8 °F
Dew Point: 64.9 °F 65.3 °F 57.7 °F 60.7 °F
Humidity: 67% 84% 67% 75%
Wind Speed: 6.9mph 13.8mph 0.0mph 4.4mph
Wind Gust: 12.6mph 18.4mph - -
WindSW - - South
Pressure: 29.98 in 30.01 in 29.94 in -
Precipitation: 0.00 in      
Historical Graphs
 
 
Tabular Data for May 25, 2016
Time Temperature Dew Point Pressure Wind Wind Speed Wind Gust Humidity Rainfall Rate (Hourly) solar Conditions
00:00 70.3 °F 60.5 °F 29.97 in SSE 3.5 mph 8.1 mph 71% 0.00 in 0.00 W/m2
00:03 70.3 °F 60.5 °F 29.96 in South 2.3 mph 8.1 mph 71% 0.00 in 0.00 W/m2
00:05 70.2 °F 60.4 °F 29.96 in South 3.5 mph 9.2 mph 71% 0.00 in 0.00 W/m2
00:08 70.2 °F 60.4 °F 29.96 in SSE 6.9 mph 10.3 mph 71% 0.00 in 0.00 W/m2
00:10 70.2 °F 60.4 °F 29.96 in South 4.6 mph 10.4 mph 71% 0.00 in 0.00 W/m2
00:13 70.2 °F 60.4 °F 29.96 in SSE 3.4 mph 6.9 mph 71% 0.00 in 0.00 W/m2
00:15 70.2 °F 60.4 °F 29.96 in South 6.9 mph 6.9 mph 71% 0.00 in 0.00 W/m2
00:20 70.2 °F 60.4 °F 29.96 in South 5.8 mph 10.4 mph 71% 0.00 in 0.00 W/m2
00:23 70.1 °F 60.3 °F 29.96 in South 4.6 mph 8.1 mph 71% 0.00 in 0.00 W/m2
00:25 70.1 °F 60.3 °F 29.96 in South 4.6 mph 8.1 mph 71% 0.00 in 0.00 W/m2
00:30 70.1 °F 60.3 °F 29.97 in South 4.6 mph 8.1 mph 71% 0.00 in 0.00 W/m2
00:35 70.1 °F 60.3 °F 29.97 in South 1.1 mph 8.1 mph 71% 0.00 in 0.00 W/m2
00:39 70.1 °F 60.3 °F 29.97 in South 1.1 mph 6.9 mph 71% 0.00 in 0.00 W/m2
00:40 70.1 °F 60.3 °F 29.97 in South 4.6 mph 6.9 mph 71% 0.00 in 0.00 W/m2
00:44 70.0 °F 60.2 °F 29.97 in South 3.4 mph 8.1 mph 71% 0.00 in 0.00 W/m2
00:45 69.9 °F 60.1 °F 29.97 in South 2.3 mph 8.1 mph 71% 0.00 in 0.00 W/m2
00:49 69.9 °F 60.5 °F 29.96 in South 6.9 mph 9.2 mph 72% 0.00 in 0.00 W/m2
00:50 69.8 °F 60.4 °F 29.96 in South 3.5 mph 9.2 mph 72% 0.00 in 0.00 W/m2
00:54 69.8 °F 60.4 °F 29.97 in SSE 3.4 mph 8.1 mph 72% 0.00 in 0.00 W/m2
00:55 69.8 °F 60.4 °F 29.97 in SSE 5.8 mph 8.1 mph 72% 0.00 in 0.00 W/m2
00:59 69.8 °F 60.4 °F 29.97 in South 4.6 mph 8.1 mph 72% 0.00 in 0.00 W/m2
01:00 69.8 °F 60.4 °F 29.97 in South 4.6 mph 8.1 mph 72% 0.00 in 0.00 W/m2
01:04 69.9 °F 60.5 °F 29.97 in South 5.8 mph 8.1 mph 72% 0.00 in 0.00 W/m2
01:05 69.9 °F 60.5 °F 29.97 in South 4.6 mph 8.1 mph 72% 0.00 in 0.00 W/m2
01:09 69.9 °F 60.5 °F 29.97 in SSW 3.4 mph 8.1 mph 72% 0.00 in 0.00 W/m2
01:14 69.9 °F 60.5 °F 29.97 in SSE 2.3 mph 8.1 mph 72% 0.00 in 0.00 W/m2
01:15 69.9 °F 60.5 °F 29.97 in SSW 9.2 mph 9.2 mph 72% 0.00 in 0.00 W/m2
01:19 69.9 °F 60.5 °F 29.97 in SSE 4.6 mph 9.2 mph 72% 0.00 in 0.00 W/m2
01:20 69.9 °F 60.9 °F 29.97 in South 4.6 mph 9.2 mph 73% 0.00 in 0.00 W/m2
01:24 69.9 °F 60.9 °F 29.98 in SSE 3.4 mph 10.3 mph 73% 0.00 in 0.00 W/m2
01:25 70.0 °F 61.0 °F 29.98 in South 4.6 mph 10.4 mph 73% 0.00 in 0.00 W/m2
01:29 70.0 °F 60.6 °F 29.98 in SW 5.8 mph 8.1 mph 72% 0.00 in 0.00 W/m2
01:30 70.1 °F 60.7 °F 29.98 in SSW 4.6 mph 8.1 mph 72% 0.00 in 0.00 W/m2
01:34 70.1 °F 60.7 °F 29.98 in South 4.6 mph 6.9 mph 72% 0.00 in 0.00 W/m2
01:35 70.1 °F 60.7 °F 29.98 in South 4.6 mph 6.9 mph 72% 0.00 in 0.00 W/m2
01:39 70.1 °F 60.7 °F 29.98 in SSE 2.3 mph 6.9 mph 72% 0.00 in 0.00 W/m2
01:40 70.2 °F 60.8 °F 29.98 in SSE 5.8 mph 6.9 mph 72% 0.00 in 0.00 W/m2
01:44 70.2 °F 60.8 °F 29.98 in SSW 4.6 mph 8.1 mph 72% 0.00 in 0.00 W/m2
01:45 70.3 °F 60.9 °F 29.98 in SSW 4.6 mph 8.1 mph 72% 0.00 in 0.00 W/m2
01:50 70.4 °F 61.0 °F 29.98 in SSW 4.6 mph 9.2 mph 72% 0.00 in 0.00 W/m2
01:55 70.5 °F 61.0 °F 29.98 in SSW 4.6 mph 8.1 mph 72% 0.00 in 0.00 W/m2
02:00 70.5 °F 60.7 °F 29.98 in SW 2.3 mph 8.1 mph 71% 0.00 in 0.00 W/m2
02:05 70.6 °F 60.8 °F 29.98 in South 10.3 mph 10.3 mph 71% 0.00 in 0.00 W/m2
02:10 70.7 °F 60.8 °F 29.98 in South 6.9 mph 10.3 mph 71% 0.00 in 0.00 W/m2
02:15 70.6 °F 60.8 °F 29.98 in South 3.4 mph 11.5 mph 71% 0.00 in 0.00 W/m2
02:20 70.5 °F 60.7 °F 29.98 in South 2.3 mph 10.3 mph 71% 0.00 in 0.00 W/m2
02:25 70.5 °F 60.7 °F 29.98 in SSW 4.6 mph 8.1 mph 71% 0.00 in 0.00 W/m2
02:30 70.3 °F 60.5 °F 29.98 in SSW 3.4 mph 8.1 mph 71% 0.00 in 0.00 W/m2
02:35 70.2 °F 60.4 °F 29.98 in SSW 5.8 mph 8.1 mph 71% 0.00 in 0.00 W/m2
02:40 70.1 °F 60.3 °F 29.98 in South 1.1 mph 10.3 mph 71% 0.00 in 0.00 W/m2
02:45 69.9 °F 60.5 °F 29.98 in SSW 4.6 mph 8.1 mph 72% 0.00 in 0.00 W/m2
02:50 69.7 °F 60.3 °F 29.98 in SSW 3.4 mph 6.9 mph 72% 0.00 in 0.00 W/m2
02:55 69.4 °F 60.0 °F 29.98 in South 3.4 mph 5.8 mph 72% 0.00 in 0.00 W/m2
03:04 68.9 °F 59.9 °F 29.97 in South 1.1 mph 1.1 mph 73% 0.00 in 0.00 W/m2
03:14 68.4 °F 59.8 °F 29.98 in South 6.9 mph 8.1 mph 74% 0.00 in 0.00 W/m2
03:19 68.2 °F 60.0 °F 29.97 in South 3.4 mph 5.8 mph 75% 0.00 in 0.00 W/m2
03:24 68.1 °F 59.9 °F 29.98 in SSE 2.3 mph 4.6 mph 75% 0.00 in 0.00 W/m2
03:29 67.8 °F 59.6 °F 29.97 in SSE 1.1 mph 3.4 mph 75% 0.00 in 0.00 W/m2
03:34 67.5 °F 59.7 °F 29.97 in SSE 3.4 mph 5.8 mph 76% 0.00 in 0.00 W/m2
03:39 67.3 °F 59.5 °F 29.97 in SSE 3.4 mph 4.6 mph 76% 0.00 in 0.00 W/m2
03:44 66.9 °F 59.5 °F 29.97 in Calm   4.6 mph 77% 0.00 in 0.00 W/m2
03:49 66.6 °F 59.5 °F 29.97 in SSE 2.3 mph 3.4 mph 78% 0.00 in 0.00 W/m2
03:54 66.1 °F 59.0 °F 29.97 in SSE 1.1 mph 4.6 mph 78% 0.00 in 0.00 W/m2
03:59 65.8 °F 58.8 °F 29.97 in SSE 2.3 mph 4.6 mph 78% 0.00 in 0.00 W/m2
04:04 65.6 °F 58.9 °F 29.97 in SSE 4.6 mph 4.6 mph 79% 0.00 in 0.00 W/m2
04:09 65.3 °F 58.6 °F 29.97 in SSE 1.1 mph 2.3 mph 79% 0.00 in 0.00 W/m2
04:15 65.1 °F 58.8 °F 29.97 in Calm   4.6 mph 80% 0.00 in 0.00 W/m2
04:20 65.0 °F 58.7 °F 29.96 in SSE 2.3 mph 4.6 mph 80% 0.00 in 0.00 W/m2
04:25 64.8 °F 58.5 °F 29.96 in SSE 2.3 mph 3.4 mph 80% 0.00 in 0.00 W/m2
04:30 64.7 °F 58.7 °F 29.95 in SSE 2.3 mph 4.6 mph 81% 0.00 in 0.00 W/m2
04:35 64.5 °F 58.5 °F 29.95 in SSE 1.1 mph 3.4 mph 81% 0.00 in 0.00 W/m2
04:40 64.4 °F 58.5 °F 29.96 in SSE 1.1 mph 3.4 mph 81% 0.00 in 0.00 W/m2
04:45 64.2 °F 58.3 °F 29.95 in SSE 2.3 mph 3.4 mph 81% 0.00 in 0.00 W/m2
04:50 63.9 °F 58.3 °F 29.95 in Calm   2.3 mph 82% 0.00 in 0.00 W/m2
04:55 63.5 °F 57.9 °F 29.95 in Calm     82% 0.00 in 0.00 W/m2
05:00 63.3 °F 58.1 °F 29.95 in SSE 2.3 mph 3.4 mph 83% 0.00 in 0.00 W/m2
05:05 63.1 °F 57.9 °F 29.95 in SE 1.1 mph 3.4 mph 83% 0.00 in 0.00 W/m2
05:10 63.1 °F 57.9 °F 29.95 in SE 2.3 mph 3.4 mph 83% 0.00 in 0.00 W/m2
05:15 63.0 °F 57.8 °F 29.95 in SE 1.1 mph 3.4 mph 83% 0.00 in 0.00 W/m2
05:20 62.9 °F 57.7 °F 29.94 in SE 2.3 mph 4.6 mph 83% 0.00 in 0.00 W/m2
05:25 62.9 °F 57.7 °F 29.95 in SE 1.1 mph 3.4 mph 83% 0.00 in 0.00 W/m2
05:30 62.8 °F 57.9 °F 29.95 in SE 3.4 mph 5.8 mph 84% 0.00 in 5.00 W/m2
05:35 62.9 °F 58.0 °F 29.95 in SE 2.3 mph 5.8 mph 84% 0.00 in 11.00 W/m2
05:40 62.9 °F 58.0 °F 29.95 in SE 2.3 mph 6.9 mph 84% 0.00 in 12.00 W/m2
05:46 63.0 °F 58.1 °F 29.95 in SE 2.3 mph 5.8 mph 84% 0.00 in 18.00 W/m2
05:51 63.0 °F 57.8 °F 29.96 in SE 3.4 mph 3.4 mph 83% 0.00 in 23.00 W/m2
05:56 63.0 °F 58.1 °F 29.96 in SE 3.4 mph 4.6 mph 84% 0.00 in 28.00 W/m2
06:01 63.2 °F 58.0 °F 29.96 in SE 3.4 mph 3.4 mph 83% 0.00 in 37.00 W/m2
06:06 63.4 °F 58.2 °F 29.97 in SE 2.3 mph 2.3 mph 83% 0.00 in 44.00 W/m2
06:11 63.7 °F 58.5 °F 29.97 in SE 3.4 mph 3.4 mph 83% 0.00 in 53.00 W/m2
06:21 64.2 °F 58.9 °F 29.97 in Calm     83% 0.00 in 77.00 W/m2
06:26 64.5 °F 59.2 °F 29.97 in SSE 5.8 mph 5.8 mph 83% 0.00 in 54.00 W/m2
06:31 64.7 °F 59.1 °F 29.98 in South 1.1 mph 5.8 mph 82% 0.00 in 56.00 W/m2
06:36 64.8 °F 59.2 °F 29.99 in South 4.6 mph 4.6 mph 82% 0.00 in 76.00 W/m2
06:41 64.9 °F 59.6 °F 29.99 in SSE 3.4 mph 4.6 mph 83% 0.00 in 109.00 W/m2
06:46 65.3 °F 59.7 °F 29.99 in South 6.9 mph 6.9 mph 82% 0.00 in 90.00 W/m2
06:51 65.9 °F 59.9 °F 30.00 in SSE 4.6 mph 4.6 mph 81% 0.00 in 169.00 W/m2
06:56 66.3 °F 60.3 °F 29.99 in South 6.9 mph 8.1 mph 81% 0.00 in 128.00 W/m2
07:02 66.4 °F 60.4 °F 29.99 in SSE 5.8 mph 8.1 mph 81% 0.00 in 128.00 W/m2
07:12 66.7 °F 60.3 °F 30.00 in SSW 3.4 mph 8.1 mph 80% 0.00 in 246.00 W/m2
07:17 67.0 °F 60.6 °F 30.00 in SSE 3.4 mph 6.9 mph 80% 0.00 in 267.00 W/m2
07:22 67.5 °F 61.1 °F 30.00 in South 1.1 mph 8.1 mph 80% 0.00 in 265.00 W/m2
07:27 68.1 °F 61.3 °F 30.00 in SSE 8.1 mph 8.1 mph 79% 0.00 in 281.00 W/m2
07:32 68.8 °F 62.4 °F 30.00 in SSE 4.6 mph 8.1 mph 80% 0.00 in 155.00 W/m2
07:37 69.1 °F 62.0 °F 30.00 in South 9.2 mph 9.2 mph 78% 0.00 in 246.00 W/m2
07:42 69.7 °F 62.9 °F 30.00 in SE 5.8 mph 10.3 mph 79% 0.00 in 387.00 W/m2
07:47 70.3 °F 63.1 °F 30.00 in SSW 4.6 mph 11.5 mph 78% 0.00 in 394.00 W/m2
07:52 71.1 °F 63.5 °F 30.00 in SSE 6.9 mph 12.6 mph 77% 0.00 in 290.00 W/m2
07:57 71.7 °F 63.7 °F 30.01 in South 1.1 mph 9.2 mph 76% 0.00 in 339.00 W/m2
08:02 72.1 °F 64.1 °F 30.01 in South 6.9 mph 10.3 mph 76% 0.00 in 504.00 W/m2
08:07 72.8 °F 64.4 °F 30.01 in South 11.5 mph 13.8 mph 75% 0.00 in 269.00 W/m2
08:12 73.2 °F 64.4 °F 30.01 in SW 11.5 mph 18.4 mph 74% 0.00 in 601.00 W/m2
08:18 73.9 °F 64.7 °F 30.01 in South 5.8 mph 12.6 mph 73% 0.00 in 606.00 W/m2
08:33 73.7 °F 64.9 °F 30.00 in WSW 9.2 mph 11.5 mph 74% 0.00 in 350.00 W/m2
08:38 73.8 °F 64.6 °F 30.00 in South 9.2 mph 10.3 mph 73% 0.00 in 403.00 W/m2
08:43 74.1 °F 64.5 °F 30.01 in South 8.1 mph 10.3 mph 72% 0.00 in 506.00 W/m2
08:48 74.2 °F 64.6 °F 30.01 in SW 11.5 mph 11.5 mph 72% 0.00 in 510.00 W/m2
08:53 74.0 °F 64.4 °F 30.01 in SSW 4.6 mph 9.2 mph 72% 0.00 in 360.00 W/m2
08:58 73.9 °F 64.3 °F 30.00 in South 13.8 mph 13.8 mph 72% 0.00 in 359.00 W/m2
09:03 74.0 °F 65.2 °F 30.00 in SSW 8.1 mph 9.2 mph 74% 0.00 in 652.00 W/m2
09:08 74.6 °F 65.0 °F 30.00 in WSW 12.6 mph 12.6 mph 72% 0.00 in 457.00 W/m2
09:13 74.4 °F 64.4 °F 30.00 in SSW 6.9 mph 9.2 mph 71% 0.00 in 722.00 W/m2
09:18 74.8 °F 65.2 °F 30.00 in South 9.2 mph 9.2 mph 72% 0.00 in 780.00 W/m2
09:23 75.2 °F 65.2 °F 30.00 in SSW 8.1 mph 13.8 mph 71% 0.00 in 684.00 W/m2
09:28 75.1 °F 64.7 °F 29.99 in SSW 8.1 mph 11.5 mph 70% 0.00 in 680.00 W/m2
09:33 75.3 °F 65.3 °F 29.99 in SSE 3.4 mph 9.2 mph 71% 0.00 in 687.00 W/m2
09:38 75.7 °F 65.2 °F 29.99 in South 8.1 mph 10.3 mph 70% 0.00 in 710.00 W/m2
09:44 76.2 °F 64.9 °F 29.98 in South 1.1 mph 9.2 mph 68% 0.00 in 715.00 W/m2
09:49 76.7 °F 64.9 °F 29.98 in SW 6.9 mph 12.6 mph 67% 0.00 in 729.00 W/m2
peotoneweather.com
Compliments of Weather Underground - 1 mb